Theta_e
321 322 322 321 320 318 319 321 322 321 321 321 323 325 324 324 327 326 323 322 321 318 315 312 311 310 309 309 309 308 308 308 308 308 307 307 306 306 306 306 306 306 307 308 310 313 315 317 318 319 320 320 321 321 322 324 325 326 327 328 328 329 330 330 330 329 328 328 329 329 328 329 329 329 327 325 324 324 324 324 324 323 322 321 320 320 321
320 321 322 319 317 317 316 318 319 318 318 318 318 320 320 321 322 321 319 318 317 314 312 310 309 308 308 308 307 307 307 307 307 307 306 305 305 305 305 305 305 305 306 306 307 310 313 315 317 319 319 320 321 321 321 323 324 326 327 327 328 328 329 329 329 329 330 329 329 329 328 328 328 328 326 325 325 325 324 323 323 322 321 320 320 320 321
320 320 319 316 315 315 315 315 316 316 316 315 315 316 317 318 319 318 317 316 315 311 309 308 307 307 307 307 306 306 306 306 306 306 305 305 305 304 304 304 304 304 305 306 307 308 311 313 315 317 318 320 320 320 321 323 324 326 326 326 327 328 328 328 329 329 329 329 329 328 328 327 327 326 326 326 326 325 324 322 322 321 320 319 319 320 320
320 319 317 315 315 316 314 314 315 316 315 314 313 313 314 315 316 317 316 315 313 310 308 307 306 306 306 306 306 306 305 305 305 305 305 305 304 304 303 303 303 304 305 306 306 308 309 311 313 315 316 318 319 319 320 322 323 325 326 326 326 326 326 327 328 329 329 328 328 327 327 327 327 326 325 326 326 324 322 321 320 320 319 319 320 320 320
320 319 318 317 318 320 317 314 314 315 314 312 311 311 311 312 313 314 314 313 311 309 307 306 305 305 305 305 305 305 305 305 305 304 304 304 303 303 303 302 302 303 304 305 306 307 309 310 311 313 314 316 317 317 318 319 320 322 324 325 325 325 326 326 328 329 329 328 328 327 326 327 327 326 325 325 325 323 321 319 319 319 318 319 319 319 319
321 320 319 319 320 320 316 312 312 313 312 310 310 310 309 310 311 311 310 309 308 307 306 305 304 305 305 304 304 304 304 304 304 303 303 303 303 303 303 302 302 302 303 305 306 307 308 309 310 311 313 314 315 315 316 318 318 319 321 323 324 324 325 326 326 328 328 327 326 326 327 326 326 326 325 324 323 321 320 319 319 319 318 319 318 318 319
322 321 320 319 318 316 313 311 311 312 310 309 309 308 308 308 309 309 308 308 307 306 305 305 304 304 303 304 304 304 304 303 303 303 302 302 302 302 302 302 302 301 302 304 305 306 307 308 310 311 312 312 314 315 316 316 316 316 317 320 321 322 324 324 325 326 327 327 326 326 326 325 325 324 324 323 322 320 320 320 319 319 319 318 318 319 318
320 320 319 319 316 313 312 311 311 311 311 310 310 309 307 307 308 308 307 307 307 306 305 304 304 303 303 303 303 302 301 301 301 301 301 301 301 301 302 302 302 301 301 301 302 304 305 307 309 309 310 311 313 314 315 315 315 315 315 316 316 317 319 321 322 323 324 325 326 325 324 324 323 322 321 321 321 320 320 320 319 319 319 319 319 319 316
317 316 315 315 314 312 311 311 311 311 311 311 311 310 308 307 307 307 307 306 306 307 306 305 304 304 303 302 302 301 300 300 300 299 299 298 298 299 300 301 301 302 301 301 301 302 303 305 306 307 308 309 311 312 312 312 313 314 315 316 315 314 314 315 317 319 321 323 324 324 323 323 322 320 320 320 320 320 320 319 320 320 319 319 319 317 315
316 314 314 314 315 314 311 310 310 310 310 310 310 310 308 307 307 307 307 307 307 307 307 305 305 305 304 302 302 301 301 301 300 300 299 298 298 298 298 298 299 300 301 301 301 301 302 302 303 304 306 307 309 310 309 310 311 312 313 314 314 314 313 312 313 315 317 319 321 322 322 322 321 321 321 321 321 320 320 320 320 319 318 318 317 316 315
316 316 316 315 315 313 310 309 310 310 310 310 310 311 310 306 306 306 307 307 306 306 305 304 305 306 305 302 301 302 301 301 301 300 300 299 298 298 298 298 298 298 299 300 300 301 301 302 302 302 304 306 307 307 306 307 309 309 309 310 312 313 313 313 313 313 314 315 317 319 320 320 319 319 319 319 318 318 318 318 317 316 316 316 316 316 315
317 316 314 312 312 311 308 307 309 310 310 310 312 315 311 306 304 305 305 305 304 304 303 303 303 304 303 301 301 301 301 301 300 300 300 299 298 298 297 298 299 299 299 299 299 299 300 300 301 301 302 304 304 303 303 304 304 304 303 304 306 309 311 313 313 313 313 314 314 315 315 315 315 315 315 315 315 316 316 315 315 315 316 316 315 315 315
315 314 312 311 310 309 307 307 308 309 310 312 313 313 309 304 303 304 304 303 303 302 302 302 301 301 301 301 301 301 300 300 300 299 299 299 298 297 297 297 298 298 299 299 298 298 299 300 301 301 302 302 301 301 301 301 300 299 300 300 301 303 306 309 311 312 312 312 312 312 312 312 313 313 314 314 314 315 315 314 314 315 316 316 315 316 316
314 313 312 311 310 308 306 307 308 308 310 312 310 307 304 303 303 303 302 302 302 301 301 301 300 301 301 301 300 300 300 299 299 299 299 298 298 298 298 298 297 297 297 297 297 297 298 298 299 300 302 302 300 300 300 299 298 299 299 300 300 300 301 302 304 307 308 307 307 308 308 309 310 310 311 313 314 314 314 315 315 316 316 315 314 314 314
313 313 311 311 310 307 306 308 308 307 308 308 306 304 303 303 302 302 302 302 301 301 301 301 300 300 300 300 300 300 299 299 299 299 299 298 298 298 298 298 298 298 297 297 297 297 297 297 298 299 300 301 301 300 300 298 298 299 299 300 300 301 300 300 300 301 302 302 303 303 303 304 305 305 305 306 307 307 308 309 310 310 310 308 307 307 307
311 312 310 309 308 306 306 307 307 307 306 306 304 303 303 302 302 302 302 301 301 301 301 301 300 300 300 300 300 300 299 299 298 298 299 299 299 298 298 298 298 298 298 298 297 297 298 298 298 297 298 299 299 300 300 299 299 299 299 300 301 301 301 301 300 300 300 301 301 301 301 302 302 303 304 304 304 304 304 304 305 304 304 304 304 304 304
308 308 307 307 306 306 306 306 306 306 305 305 304 303 303 302 302 302 302 302 301 301 301 301 300 300 300 300 300 299 299 299 298 299 300 300 300 299 299 299 298 298 298 298 298 297 298 298 298 298 297 297 298 298 299 299 300 300 300 300 301 301 300 301 300 300 301 301 301 301 301 301 302 303 303 303 303 303 303 303 304 304 303 304 304 305 305
307 307 306 306 306 306 306 305 305 305 304 304 303 303 303 302 302 302 301 301 301 301 301 300 300 300 300 300 300 300 299 299 299 299 300 300 300 300 300 299 299 299 298 298 298 298 298 298 298 298 297 298 299 299 299 299 299 299 300 300 301 301 300 300 300 300 300 301 300 300 301 301 301 301 302 302 303 302 302 302 303 304 305 305 305 305 306
307 307 306 306 306 305 305 305 304 304 303 303 303 303 302 302 302 302 301 301 301 301 301 301 301 301 301 301 301 300 300 299 299 299 299 300 299 299 299 299 299 299 299 299 299 299 299 299 299 298 298 298 298 299 300 301 300 299 298 298 299 300 300 300 300 300 300 301 300 300 300 300 300 300 301 302 303 303 303 303 303 304 305 306 306 306 306
307 307 306 306 305 305 304 304 304 303 303 303 302 302 302 302 301 301 301 301 301 301 301 301 301 301 301 300 300 300 300 299 299 300 300 300 299 299 299 299 299 299 299 299 299 299 299 299 299 299 299 299 298 299 300 301 301 300 298 297 298 299 299 299 300 300 300 300 300 300 300 300 300 300 300 300 302 302 302 302 303 304 305 306 306 306 306
306 305 305 305 305 305 304 304 303 303 303 302 302 302 302 302 302 301 301 301 301 301 301 300 299 298 298 298 298 298 299 299 300 300 300 300 300 300 300 300 300 299 299 299 299 299 299 299 299 299 299 300 300 299 300 300 301 301 300 298 298 298 299 300 300 300 300 300 300 301 301 300 300 300 299 298 299 299 299 300 301 302 303 304 305 305 305
306 305 304 305 305 305 304 304 303 303 303 303 303 302 302 302 302 302 302 302 301 301 300 299 298 297 297 297 297 297 297 298 299 299 299 299 299 299 299 300 300 300 300 300 299 299 299 299 299 299 299 299 300 299 299 300 300 300 300 299 299 299 299 300 300 300 301 301 301 301 301 301 301 300 299 298 298 298 298 298 298 298 299 300 302 302 302
306 305 304 304 304 304 304 304 304 303 303 303 303 303 302 302 302 302 302 302 301 301 300 300 299 298 298 298 297 297 297 297 298 298 298 299 299 299 299 299 299 300 300 300 300 300 299 299 299 299 299 299 299 299 299 299 300 300 300 300 299 300 300 300 300 300 301 301 301 301 301 301 301 301 301 300 300 299 299 298 298 298 298 298 298 298 298
304 304 304 304 304 304 304 304 304 303 303 303 303 303 303 303 302 302 302 301 301 300 300 300 299 299 298 298 298 297 297 297 297 298 298 298 298 299 299 299 299 299 299 299 300 300 299 299 299 299 299 299 299 299 299 299 299 299 299 299 299 299 300 300 300 300 300 300 300 301 300 300 300 300 301 300 300 300 300 300 299 299 299 298 298 297 297
304 304 304 303 303 303 303 302 302 302 302 303 303 303 302 302 302 301 301 301 301 300 300 300 299 299 299 298 298 298 297 297 297 297 298 298 298 298 298 299 299 299 298 299 299 299 299 299 299 299 299 299 299 299 299 299 299 299 299 299 299 299 299 300 300 300 300 300 300 300 300 300 300 300 300 300 300 300 300 300 300 301 300 300 299 298 297
304 303 303 303 302 302 301 301 301 300 300 301 301 302 302 301 301 301 301 301 300 300 300 299 299 299 298 298 298 298 298 298 298 298 297 297 297 297 297 298 298 298 298 298 298 298 298 298 298 298 299 299 299 299 299 299 299 299 299 299 299 299 299 299 299 299 299 300 300 300 300 300 300 300 300 299 300 300 299 299 300 301 301 300 299 299 298
303 303 302 302 302 302 301 301 300 300 300 300 300 300 300 300 300 300 300 299 299 299 299 299 299 299 298 298 298 298 298 298 298 298 297 297 297 297 297 297 297 298 298 298 298 298 298 298 298 298 298 299 299 299 299 299 299 299 299 299 299 299 299 299 299 299 299 299 299 299 300 300 300 299 299 299 300 300 299 299 299 300 300 300 300 299 298
303 303 303 302 302 302 301 301 300 300 300 300 300 300 300 300 300 300 300 300 299 299 299 299 299 299 299 298 298 298 298 298 298 298 297 297 297 297 297 297 296 295 296 298 298 298 298 298 298 298 298 298 299 299 299 299 299 298 298 299 299 299 298 298 298 299 299 299 298 297 298 299 299 299 299 299 299 299 299 299 298 299 300 300 299 299 298
303 303 303 302 302 301 301 301 301 301 301 301 300 300 300 300 300 300 300 300 300 300 299 299 299 299 299 299 298 298 298 298 298 297 297 297 297 297 296 295 292 292 294 297 298 298 298 298 298 298 298 298 298 298 299 299 299 299 299 299 299 299 298 296 296 298 299 299 298 297 298 299 299 299 299 299 299 298 298 298 298 299 299 300 299 298 298
303 302 302 302 302 302 302 301 301 301 301 301 301 301 301 301 301 301 301 300 300 300 300 300 300 299 299 299 299 299 298 298 298 297 296 296 296 295 294 293 291 291 293 296 297 297 298 298 298 298 298 298 298 298 298 299 299 299 299 299 299 299 298 296 295 297 298 298 297 297 298 298 298 299 299 298 298 298 298 298 298 298 299 299 298 298 298
302 302 302 302 302 302 302 302 302 301 301 301 301 301 301 301 301 301 301 301 301 301 300 300 300 300 300 299 299 299 298 298 298 297 295 295 294 294 294 294 292 290 290 292 294 295 296 297 297 298 298 297 297 297 298 298 298 299 299 299 299 299 298 297 295 296 297 297 297 297 298 298 298 298 298 298 298 298 298 298 298 298 298 298 298 298 298
302 302 302 302 302 302 301 301 302 301 301 301 301 301 301 301 301 301 301 301 301 301 301 301 300 300 300 300 299 299 299 298 298 297 295 295 295 294 294 294 292 290 290 292 294 296 297 297 297 297 297 297 297 297 297 297 298 298 299 299 299 299 298 297 296 296 297 297 297 297 297 297 297 297 297 298 297 298 298 297 297 297 297 297 297 297 297
302 302 302 302 302 301 301 301 301 301 301 301 300 300 301 300 300 300 301 301 301 301 301 301 301 300 300 300 300 300 299 298 297 296 296 296 295 295 294 294 292 290 290 293 295 296 297 297 297 297 296 296 297 297 297 297 298 298 299 299 299 299 298 297 297 297 297 297 297 297 297 297 297 297 297 297 297 297 297 297 297 297 297 297 297 296 296
302 302 302 302 302 301 301 301 301 301 300 300 300 300 300 300 300 300 300 300 301 301 301 301 301 301 301 300 300 300 299 298 297 296 296 296 295 295 295 294 292 290 292 293 294 295 296 296 296 297 297 296 296 297 297 297 298 298 298 299 299 299 298 298 297 297 297 297 297 296 296 296 296 296 296 297 297 297 297 297 297 297 296 296 296 296 295
301 301 301 301 301 300 300 300 300 300 300 300 300 300 300 300 300 300 300 300 300 300 300 301 300 301 301 300 300 299 298 297 297 296 296 296 295 295 295 294 292 292 294 295 295 295 295 296 296 297 297 296 296 296 296 297 298 298 298 299 299 299 298 298 298 297 297 297 296 296 296 296 295 295 295 296 297 297 297 296 296 296 296 296 296 295 295
300 300 300 300 301 300 300 300 300 300 300 300 300 300 300 300 300 300 300 300 300 300 300 301 301 300 300 300 300 299 298 297 297 296 296 296 296 295 295 294 293 294 295 295 295 295 295 295 295 295 295 295 295 296 296 297 297 297 298 298 299 298 298 298 297 297 296 296 296 296 296 295 295 294 295 295 296 296 296 295 295 295 296 296 295 295 295
301 300 300 300 300 300 300 300 300 300 299 300 300 300 300 300 300 300 300 300 300 300 300 300 300 300 300 300 300 298 297 297 296 296 296 296 296 296 295 295 294 295 295 294 295 295 295 293 293 292 293 295 296 296 296 297 297 297 298 298 298 298 298 297 297 297 296 296 296 296 296 295 295 294 294 295 295 295 295 295 295 295 295 295 295 295 295
300 300 300 300 300 300 299 299 300 300 300 300 300 300 300 300 300 299 299 299 299 300 300 300 300 300 300 300 299 298 298 297 297 297 297 297 297 297 296 295 295 296 295 295 295 295 295 294 292 291 292 296 297 296 296 297 297 297 297 297 298 298 298 297 297 297 296 296 296 296 295 295 296 295 294 295 295 295 295 295 295 295 295 295 294 294 294
300 300 300 300 300 300 299 299 300 300 299 299 300 300 300 300 299 299 300 300 299 299 299 299 299 299 299 299 299 299 298 298 298 298 298 298 298 297 297 296 297 297 296 296 296 295 294 293 292 290 292 295 297 297 297 297 297 297 297 297 297 298 298 297 297 297 297 296 296 296 296 296 295 295 295 295 295 295 295 294 294 294 294 294 294 293 293
300 300 300 299 299 299 299 299 300 300 299 299 299 300 300 300 299 299 300 300 300 299 299 299 299 299 299 299 299 299 299 299 298 298 298 298 298 298 297 297 297 297 297 296 297 296 294 293 293 292 292 295 296 296 297 297 297 298 298 297 297 298 298 297 297 297 296 296 296 296 296 296 295 295 294 294 294 294 295 294 294 294 294 294 294 294 294
300 300 300 300 299 299 299 299 299 299 299 299 299 299 300 300 299 299 300 300 300 300 300 299 299 299 299 299 299 299 299 298 298 298 298 298 298 298 298 297 297 297 296 296 296 295 294 293 293 293 293 294 295 295 296 297 298 298 297 297 297 298 298 297 297 296 296 296 296 296 296 296 296 295 294 294 294 295 295 294 294 294 294 294 294 294 293
300 300 300 299 299 299 299 299 299 299 299 299 299 299 300 300 300 300 300 300 300 300 300 299 299 299 299 299 299 298 298 298 298 298 298 298 298 298 298 298 298 297 296 295 295 295 293 293 293 294 294 294 293 293 294 295 296 297 297 297 297 297 297 297 297 296 296 296 296 295 296 296 296 296 295 294 294 294 295 294 294 294 294 294 294 293 292
300 300 299 300 300 299 299 299 299 299 299 300 300 300 300 299 299 300 300 300 300 300 300 300 300 299 299 299 299 299 299 299 299 299 298 298 298 298 298 298 298 298 297 297 296 294 293 292 293 293 294 294 293 293 293 293 293 294 295 296 296 296 296 297 296 296 296 296 296 295 295 296 296 296 295 295 294 294 294 294 294 295 294 294 294 293 292
300 300 300 299 299 299 299 299 298 299 299 299 299 299 299 299 299 300 300 300 300 300 300 300 300 300 299 299 299 299 299 299 299 299 299 298 298 298 298 298 298 298 298 297 296 295 293 293 293 293 293 293 293 293 293 292 291 290 292 295 295 295 295 296 296 296 296 296 296 295 295 295 296 296 295 295 295 295 294 293 294 294 294 294 294 294 293
299 299 299 299 298 298 299 299 299 299 299 298 298 299 299 299 299 300 300 300 300 300 300 300 300 300 300 300 299 299 299 299 299 299 299 299 299 299 298 298 298 297 297 296 296 295 294 294 293 292 292 292 291 291 292 291 290 289 290 292 294 295 294 295 296 296 296 296 296 296 295 295 295 296 296 295 295 295 294 294 293 294 294 294 294 293 293
300 299 299 299 299 299 299 299 299 299 298 298 298 299 299 299 299 299 299 299 300 300 300 300 300 300 300 300 300 299 299 299 299 299 299 299 298 298 298 298 297 297 296 295 295 295 295 294 293 292 292 291 289 289 290 290 289 289 289 291 293 294 294 295 296 296 296 296 296 296 295 295 295 295 295 295 295 295 295 294 294 293 293 294 294 293 293
299 299 299 299 299 299 299 298 298 298 298 298 299 299 299 299 299 299 299 299 299 299 299 299 300 300 300 300 299 299 299 299 299 299 299 298 298 298 298 297 297 296 296 296 296 296 296 295 294 294 294 293 291 289 288 288 289 290 291 292 293 294 294 295 295 296 295 295 296 295 295 295 295 294 295 295 295 295 294 294 294 293 293 293 293 293 293
299 299 299 299 298 298 298 298 298 298 298 298 299 299 299 298 298 299 299 299 299 299 299 299 299 299 299 299 299 299 299 299 299 298 298 298 298 298 298 298 297 297 297 297 296 296 295 295 294 294 295 294 292 290 288 288 288 290 291 292 293 293 293 294 294 295 295 295 295 295 295 295 294 294 294 294 294 294 294 294 294 294 294 294 294 293 293
299 299 298 298 298 298 298 298 298 298 298 298 298 298 298 298 298 299 299 299 299 299 299 299 299 299 299 299 299 299 299 299 299 298 298 298 298 298 298 298 297 297 297 296 296 295 295 295 295 295 294 294 293 291 289 288 289 290 291 292 293 293 294 294 295 295 295 295 295 295 295 295 294 294 294 294 294 294 294 294 293 293 294 294 294 293 293
299 298 298 298 298 298 298 298 298 298 298 298 298 298 298 298 298 299 299 299 299 299 299 299 299 299 298 298 298 298 298 298 298 298 298 298 297 297 297 297 297 297 296 296 296 296 295 295 295 295 294 294 294 292 290 288 289 291 292 292 292 293 294 295 295 295 295 295 295 295 295 295 294 294 294 294 294 293 293 293 293 293 293 293 293 293 293
299 298 298 298 298 298 297 297 298 298 298 298 298 298 298 297 298 299 299 298 298 298 299 298 298 298 298 298 297 297 297 297 297 297 297 297 297 297 297 297 296 296 296 296 296 296 295 295 295 295 294 293 293 293 291 290 290 291 292 292 293 293 293 294 294 295 295 295 295 295 295 295 295 294 294 294 294 294 293 293 293 293 293 293 293 293 293
298 298 298 298 297 297 298 298 298 298 297 297 298 297 297 296 297 298 298 298 298 298 298 298 297 297 298 298 297 297 297 296 296 297 297 297 297 297 297 296 296 296 296 296 296 295 295 295 295 295 294 293 293 293 292 292 292 291 291 291 292 292 292 293 294 294 294 294 295 295 295 295 295 294 294 294 294 294 293 294 294 293 293 293 293 293 293
Wind_Speed
2 2 6 7 8 10 10 10 9 10 10 10 10 8 4 4 5 3 3 7 9 8 9 9 9 10 11 12 14 15 17 18 18 19 19 19 19 20 20 20 20 21 21 21 20 18 16 15 14 14 14 13 13 13 14 14 14 14 13 15 17 18 20 23 29 34 37 39 34 29 31 31 28 28 27 25 24 24 23 21 18 18 19 20 20 18 16
2 5 7 10 12 12 12 12 11 10 11 11 10 10 9 9 9 8 10 12 11 8 8 9 11 14 13 13 15 17 18 18 18 18 19 19 19 20 20 20 20 20 20 20 20 19 17 16 15 15 15 15 15 16 16 14 13 12 10 10 14 17 20 23 27 33 36 37 33 30 32 31 28 27 27 26 24 22 21 20 19 18 20 21 20 18 16
3 8 11 12 13 14 13 12 11 10 10 10 10 10 9 7 8 9 11 11 8 7 9 12 14 15 15 16 17 17 17 17 17 18 18 19 20 21 21 21 20 20 20 20 20 20 18 17 16 15 14 14 13 14 13 11 8 6 5 5 7 13 19 22 28 34 36 37 34 30 30 29 28 29 29 27 24 22 21 22 21 19 20 21 20 18 17
4 6 10 11 11 13 13 11 11 10 8 7 8 8 8 6 4 6 8 7 4 5 9 13 14 15 16 17 16 15 16 16 17 17 18 19 20 22 24 23 21 21 21 20 20 19 19 18 16 15 14 13 13 13 11 8 5 2 1 4 8 12 14 20 28 32 33 35 34 30 29 30 31 31 30 28 26 23 24 24 21 20 20 19 18 18 18
3 6 10 9 6 7 7 6 8 6 6 7 7 8 10 10 5 3 5 4 4 5 8 10 11 13 15 16 16 16 15 15 16 17 17 18 19 21 24 25 23 22 22 20 19 18 17 17 16 15 14 14 14 14 12 10 7 4 5 8 11 13 15 20 27 30 29 31 32 30 30 31 32 31 30 28 26 24 24 23 21 20 20 18 17 17 17
3 6 9 5 3 4 2 4 6 4 7 11 10 9 11 11 7 5 6 5 5 7 8 9 10 12 15 16 17 16 15 15 15 17 18 18 19 21 23 24 25 25 23 21 19 18 16 15 14 13 13 13 12 12 11 10 10 9 6 9 13 14 15 18 24 28 28 28 30 32 32 32 31 31 30 28 26 25 24 23 21 21 20 18 17 16 15
4 5 6 4 3 2 3 2 5 6 10 14 13 12 12 12 9 8 8 7 7 8 10 11 14 17 19 20 19 17 16 16 15 17 18 18 18 20 21 22 24 25 25 23 22 21 19 16 14 13 13 14 12 11 11 12 15 15 11 8 14 17 17 17 21 26 30 30 30 32 32 31 29 29 27 26 27 26 23 20 21 21 19 18 17 15 13
3 2 2 3 3 3 3 3 4 4 5 6 8 10 11 11 9 7 7 7 7 9 11 12 17 21 23 24 22 21 20 20 20 20 20 19 18 19 19 19 20 21 24 25 24 24 22 20 18 17 16 16 14 13 14 16 19 21 17 13 14 18 20 21 21 25 29 32 32 30 30 29 27 25 24 24 25 24 21 21 23 22 20 18 16 14 13
4 4 3 4 4 2 2 2 3 2 1 1 3 5 6 8 9 8 5 5 6 7 10 12 13 13 17 19 18 20 21 21 22 23 22 21 21 20 19 18 18 18 20 22 23 24 23 23 22 20 18 17 16 15 16 18 20 21 21 20 18 17 19 21 22 25 29 31 31 30 29 28 26 25 24 24 24 23 23 23 23 22 20 18 16 14 14
3 5 4 3 3 2 2 2 4 4 2 2 2 4 3 6 10 11 6 4 6 6 4 3 8 7 6 9 9 14 18 18 20 22 23 23 23 23 23 22 22 21 21 21 22 22 23 24 23 21 19 18 18 18 19 20 20 20 21 21 20 18 18 19 19 23 27 29 30 29 27 27 27 26 26 26 25 24 26 26 23 20 17 14 13 13 13
3 5 3 2 2 1 2 2 8 9 5 4 1 2 2 4 9 11 8 7 8 6 6 7 1 5 3 3 5 11 14 15 18 19 20 22 22 22 23 23 24 24 23 23 23 23 24 23 22 21 20 19 20 22 23 22 21 22 24 22 19 18 16 16 16 17 20 25 27 27 26 26 26 26 26 26 24 23 23 23 20 15 11 10 11 12 13
3 5 3 2 2 1 0 4 9 10 3 3 2 0 1 3 7 9 8 8 9 7 6 9 8 4 5 5 7 11 14 14 17 18 19 21 22 22 23 22 21 22 22 23 24 25 25 23 21 20 20 20 22 24 25 25 26 27 27 25 21 19 16 13 13 13 14 17 20 21 21 20 20 19 19 19 19 19 18 15 12 9 8 9 11 11 12
5 6 4 2 2 1 2 7 10 7 1 3 1 1 2 6 8 9 10 10 10 10 11 12 11 10 12 13 13 14 15 15 17 18 18 20 21 22 23 22 21 21 21 23 24 24 24 22 20 19 19 21 24 24 25 27 29 28 27 26 25 23 20 16 16 15 14 14 17 18 17 15 14 14 13 13 14 15 15 12 9 8 8 9 11 12 12
3 4 3 2 2 1 6 10 9 6 1 2 2 4 7 10 10 10 12 13 12 14 16 17 16 15 16 16 15 15 15 16 17 17 17 18 19 20 21 22 22 22 22 24 25 25 24 23 23 20 19 20 23 23 24 25 25 24 24 24 24 25 24 23 20 18 18 18 18 19 19 17 16 16 14 12 11 13 14 15 13 12 11 11 11 12 12
2 3 3 3 2 4 9 8 5 6 3 5 9 12 12 12 12 12 14 14 15 17 19 19 19 18 16 16 16 15 15 15 16 16 16 16 17 18 20 21 22 22 22 23 24 25 25 25 25 23 22 22 22 22 23 22 19 18 21 22 21 22 24 24 24 22 21 21 21 20 19 19 20 21 20 18 17 16 14 13 13 13 12 12 11 11 10
1 3 2 2 2 4 10 10 5 5 9 13 15 15 14 12 13 14 15 15 16 17 19 19 18 17 16 15 14 13 13 13 14 15 15 16 17 17 19 19 20 20 21 21 21 22 23 25 25 25 25 25 24 24 22 19 16 15 16 18 19 21 21 22 21 20 19 20 20 20 19 19 21 22 21 20 21 21 20 18 17 17 15 13 11 10 9
4 5 3 3 5 10 18 19 15 15 17 17 16 16 15 13 13 14 15 15 15 15 16 17 16 15 14 14 12 12 12 11 12 12 13 14 15 16 17 17 17 19 19 20 20 21 21 23 24 25 25 25 26 26 24 20 18 16 14 13 15 18 20 21 21 19 17 18 18 18 18 17 17 18 17 16 17 17 18 18 18 18 15 11 9 8 5
7 10 8 8 12 18 21 20 19 19 18 17 17 17 16 15 14 15 15 16 15 15 15 16 15 14 13 12 11 10 10 9 10 10 11 12 13 13 15 15 16 16 18 19 20 21 21 21 21 22 23 23 24 25 24 24 22 20 17 15 14 14 15 17 17 16 16 17 17 17 17 15 14 13 13 12 12 12 13 14 15 15 14 12 10 8 5
4 6 7 11 16 20 21 21 20 19 18 18 18 17 17 16 15 15 16 15 14 14 14 14 14 12 11 10 10 9 9 9 9 10 11 12 12 12 13 13 14 14 15 17 18 18 19 19 20 20 20 21 21 20 20 21 22 22 20 18 17 16 16 16 16 16 15 15 14 14 14 13 12 12 11 10 10 11 12 12 11 11 12 11 11 10 7
5 5 9 15 21 22 21 20 19 19 20 19 19 18 18 17 17 16 16 15 15 15 14 13 13 12 10 9 8 7 8 8 8 9 10 10 10 11 10 11 12 12 12 13 14 14 15 16 17 17 17 18 19 19 18 16 17 19 19 17 15 16 16 17 17 17 17 17 16 15 15 14 12 11 11 10 9 8 9 9 8 8 9 9 8 7 5
8 8 12 18 18 16 17 19 20 20 21 21 21 20 18 18 17 17 16 15 15 15 13 12 13 12 11 10 9 7 7 6 6 8 9 9 9 10 10 11 11 12 11 11 11 10 11 13 13 13 13 14 15 16 16 14 14 16 17 17 15 14 14 15 15 16 16 16 16 16 17 17 17 16 14 12 9 7 6 6 6 5 6 7 7 6 5
5 6 11 14 10 8 13 19 20 19 20 21 20 19 18 17 17 16 16 15 14 13 12 11 12 13 13 13 13 11 10 8 8 9 10 10 11 12 13 12 12 12 12 11 10 8 8 10 11 12 12 12 13 14 14 13 12 13 14 14 15 15 14 14 15 15 14 14 14 14 14 15 16 17 17 16 14 11 8 6 5 4 5 5 6 5 4
8 13 17 17 14 13 17 21 21 20 20 20 20 19 17 15 15 15 15 15 13 11 10 9 10 11 11 11 13 13 12 11 10 10 9 9 10 12 12 13 13 13 13 13 12 9 7 7 9 9 9 9 10 12 13 11 10 10 9 10 11 11 12 13 13 12 12 11 10 11 12 12 13 14 15 15 15 15 14 12 10 8 6 5 3 2 1
15 20 22 20 18 18 19 21 20 19 18 18 18 17 16 15 14 13 13 12 11 11 11 8 7 8 9 10 11 11 11 10 10 10 8 7 8 9 10 11 12 12 12 12 11 11 10 9 7 7 8 8 7 7 9 9 9 9 9 10 10 7 8 10 9 9 9 9 9 9 9 9 10 11 11 12 12 13 12 12 11 11 11 10 7 5 4
20 22 22 21 20 19 17 16 15 14 15 17 17 16 16 16 14 11 11 11 11 11 10 9 8 8 8 7 8 9 9 9 10 10 8 8 9 9 9 9 10 10 11 11 10 11 12 12 9 6 7 9 9 6 6 6 6 7 7 9 10 7 7 8 7 6 5 6 7 9 8 7 6 6 7 8 8 9 8 8 8 10 12 12 11 9 7
23 22 21 20 18 17 16 16 15 14 14 16 17 16 14 13 11 10 9 9 9 9 8 8 8 9 8 7 6 6 6 7 9 10 9 8 9 9 7 7 8 9 9 10 11 11 11 11 10 8 6 7 9 7 6 4 3 3 5 9 8 5 5 7 7 5 4 3 3 4 5 6 6 5 5 6 6 6 7 7 7 8 9 11 12 12 10
22 20 18 17 16 15 15 15 16 14 13 14 16 15 12 11 11 11 10 9 8 8 7 6 5 5 6 7 6 4 4 5 7 9 9 8 7 5 4 6 7 7 7 8 9 9 9 9 10 10 7 6 8 7 6 5 3 1 4 9 8 3 2 4 6 6 5 4 3 2 1 4 7 9 9 8 6 5 6 6 6 6 7 7 10 11 11
20 18 17 16 15 16 15 14 14 14 14 14 13 12 11 10 10 10 9 9 8 6 6 5 5 5 6 7 6 6 6 6 6 6 6 5 4 4 6 9 10 8 6 6 6 5 5 6 7 9 7 6 7 8 6 5 4 2 3 7 7 4 2 3 3 4 4 4 6 6 1 3 5 7 8 8 8 7 6 5 6 5 4 4 7 9 10
19 18 16 15 15 15 15 13 11 10 12 11 9 9 10 11 9 8 8 7 5 4 5 5 4 3 4 5 5 6 7 6 4 5 7 7 7 8 11 13 12 7 5 6 6 5 5 5 5 6 5 2 3 6 7 5 4 3 3 5 6 5 6 6 4 2 2 4 6 8 5 4 4 4 5 5 6 8 7 5 5 6 4 3 5 7 9
17 16 15 15 16 16 14 11 8 7 7 6 5 6 7 6 6 6 6 5 3 3 3 3 2 2 3 4 4 3 3 3 6 9 9 8 8 10 12 13 13 7 4 7 8 8 8 7 5 4 5 5 5 4 5 5 6 4 2 3 5 5 7 8 5 4 4 4 5 7 7 5 2 2 1 0 3 7 7 4 5 6 5 4 4 5 7
15 13 13 15 17 16 14 12 11 10 9 6 4 4 4 3 2 3 3 3 2 1 1 0 1 2 3 2 2 2 2 5 8 9 9 8 9 11 13 14 13 10 7 7 7 6 7 8 5 5 7 7 7 4 3 5 7 6 3 1 3 5 7 9 7 6 5 4 4 3 4 4 2 1 1 3 1 4 6 4 5 7 6 5 4 5 7
15 15 15 16 17 14 11 12 14 14 11 7 4 4 4 4 5 4 2 1 1 1 1 1 2 2 2 3 4 5 5 7 8 8 8 8 10 13 14 14 13 11 8 7 6 5 7 9 9 9 10 9 8 5 4 6 7 6 3 2 2 3 5 8 8 6 4 5 3 2 2 0 1 2 3 4 4 1 2 3 4 5 5 4 5 7 8
15 13 11 12 15 14 12 13 14 13 10 6 5 5 5 4 3 3 4 4 3 1 1 2 2 2 3 5 7 7 7 8 8 7 7 9 11 13 14 14 12 10 7 6 7 7 7 7 9 11 12 8 5 4 3 5 6 6 4 4 2 0 3 6 7 6 4 5 4 3 6 7 6 5 7 8 8 7 4 2 1 2 3 5 6 8 7
14 13 12 11 12 12 12 13 12 11 8 6 5 4 4 3 3 2 2 3 3 4 4 4 3 3 5 8 9 8 8 8 7 7 7 8 10 12 14 13 12 9 7 7 7 7 7 9 11 11 11 9 3 2 3 4 5 6 7 5 4 2 1 2 3 2 3 5 7 8 10 11 10 10 10 10 10 11 8 5 3 2 2 3 4 5 4
11 11 10 10 10 11 11 10 10 9 7 6 5 5 5 6 6 5 4 3 3 4 4 4 4 4 4 7 8 7 7 7 7 6 7 8 10 12 13 13 10 7 7 8 8 7 8 10 10 10 10 9 5 3 4 4 5 7 8 6 4 4 4 1 3 3 5 6 7 8 8 11 13 11 9 8 8 9 8 5 3 2 1 1 2 2 2
12 12 10 9 9 9 9 9 9 8 7 6 5 5 7 7 6 5 5 5 4 3 3 4 5 4 2 5 6 7 7 6 6 7 7 8 10 11 12 11 8 6 6 7 6 7 9 10 9 10 13 12 6 3 3 4 5 7 9 7 6 8 8 3 3 4 5 6 6 6 8 13 15 9 5 5 5 5 4 3 3 3 3 3 4 3 2
10 11 11 9 7 6 7 7 7 6 5 4 3 3 5 7 6 4 4 4 5 4 3 3 4 4 4 5 7 7 6 6 6 6 7 8 9 10 10 9 6 4 4 5 5 7 11 13 12 11 12 9 4 1 2 4 6 8 8 6 5 7 8 5 2 3 5 6 5 7 10 12 14 9 2 4 4 2 2 3 3 3 2 2 2 4 4
6 7 7 7 6 5 5 5 5 4 3 3 4 3 3 3 3 3 3 3 3 3 2 3 4 4 4 6 7 6 5 5 6 7 7 8 9 10 9 7 6 6 5 4 5 9 12 14 14 12 8 4 2 2 2 4 6 8 7 6 6 4 5 7 2 3 5 7 7 10 10 10 12 10 2 4 4 2 2 3 4 5 5 4 5 6 6
7 6 5 5 5 5 4 3 4 3 3 3 4 3 1 1 1 2 3 4 4 4 2 2 3 5 5 6 7 7 6 5 6 8 8 9 9 10 8 8 10 11 8 6 7 11 13 13 14 12 7 2 2 5 6 6 7 9 9 8 7 5 5 7 3 2 4 7 9 10 8 8 11 9 2 4 5 3 1 2 4 6 7 5 4 3 2
8 7 6 5 5 5 4 2 1 2 2 3 3 3 3 4 3 3 3 4 5 5 3 2 4 6 5 4 6 7 7 6 7 8 8 8 9 8 8 8 9 10 7 5 7 9 11 12 12 11 6 2 3 5 7 8 9 11 10 7 6 6 8 9 6 1 2 7 9 9 7 7 9 9 4 4 5 4 2 1 3 3 3 2 1 1 1
6 6 5 4 3 2 2 1 2 2 1 2 2 2 3 5 4 3 4 4 5 5 4 3 4 5 5 5 6 7 6 7 8 8 7 7 7 7 7 7 7 7 7 5 6 10 12 11 10 9 6 3 3 5 8 9 11 10 6 2 4 7 10 7 8 4 3 5 7 6 7 7 7 7 6 4 5 5 3 2 2 2 2 3 2 3 4
6 5 4 3 2 2 1 2 2 3 3 2 1 2 1 3 4 4 4 4 5 6 5 4 5 7 7 8 8 7 6 8 9 9 8 7 7 7 8 10 9 7 5 5 7 10 11 9 8 9 8 6 6 6 7 9 9 6 2 1 4 8 8 3 8 6 2 4 5 5 5 6 7 6 4 5 5 4 3 3 2 1 1 2 3 4 2
6 4 3 2 1 2 1 0 1 2 2 2 2 1 1 4 6 5 3 3 5 7 6 6 7 8 7 7 6 6 7 8 8 9 9 8 6 7 9 11 12 12 13 12 9 9 8 7 7 8 8 5 4 6 7 9 10 6 3 3 6 7 5 2 4 5 1 3 6 7 6 7 8 6 1 2 3 3 2 2 4 4 1 1 3 3 2
5 4 2 1 1 1 0 1 2 3 2 3 3 3 2 3 4 5 4 4 5 6 6 7 8 8 8 7 7 8 8 8 8 9 9 8 8 10 12 13 13 13 14 12 7 5 7 8 7 6 5 5 7 9 10 11 12 9 6 6 6 7 7 6 4 3 3 4 4 7 8 8 8 7 4 2 2 2 2 2 3 5 3 2 2 2 3
4 3 2 2 1 1 1 0 2 4 4 4 5 4 2 1 2 4 4 5 5 5 6 7 8 9 9 9 9 8 8 10 10 10 10 11 11 13 14 14 12 9 7 5 3 5 8 8 7 6 7 9 11 13 13 13 12 10 8 9 9 6 7 9 8 6 5 6 6 4 6 5 5 7 6 5 3 3 1 0 2 4 5 5 4 3 3
4 3 3 2 1 1 2 1 2 4 5 5 5 3 1 1 3 3 4 5 6 6 6 7 8 8 8 9 9 8 8 10 11 11 11 11 12 11 10 9 8 6 5 3 3 6 7 6 5 6 9 11 11 12 12 12 10 7 5 8 11 7 5 6 8 10 7 7 6 4 2 3 3 3 6 8 6 4 3 2 1 1 4 6 6 4 3
4 4 3 2 1 1 0 1 1 3 5 6 5 3 1 2 5 4 4 5 6 5 6 7 8 7 7 8 8 8 7 8 9 9 9 8 8 7 7 7 6 6 6 4 5 7 8 7 6 8 11 13 13 11 9 8 6 4 1 2 6 5 4 4 6 9 9 9 8 6 3 3 4 3 3 7 8 6 5 4 2 2 2 5 5 4 4
4 4 2 1 1 1 0 0 1 2 3 5 6 6 4 6 6 5 4 5 5 4 5 7 6 5 4 5 5 5 6 6 8 8 7 5 4 5 7 7 6 5 7 7 7 8 9 8 8 9 11 13 13 11 8 6 5 5 5 4 3 5 6 8 10 11 10 10 10 8 5 2 3 3 3 4 5 4 4 5 5 4 5 6 6 5 5
3 3 2 2 0 1 1 2 1 3 4 4 5 7 8 8 7 5 5 4 4 5 5 5 4 4 4 4 5 6 7 8 10 11 9 6 4 5 5 6 6 5 6 7 7 8 9 9 8 9 10 10 12 12 9 5 2 3 5 5 4 6 7 6 7 9 9 7 8 10 9 5 3 4 4 4 5 5 4 4 6 7 7 8 8 7 6
5 4 3 3 3 1 1 1 1 3 5 4 3 4 6 6 6 6 5 3 2 4 5 5 6 7 8 7 6 7 8 8 9 10 9 7 4 3 3 5 6 6 6 6 7 9 10 10 9 10 10 9 10 12 10 4 2 3 4 4 5 7 6 3 2 5 6 6 6 9 11 8 5 5 5 5 7 8 6 5 5 7 7 7 6 6 6
6 4 2 3 3 2 2 2 0 1 1 2 3 2 3 4 4 5 6 5 3 2 1 3 5 8 9 9 9 8 7 7 7 8 8 8 6 3 1 2 4 6 7 8 8 8 8 8 8 9 9 8 8 9 8 3 1 2 4 6 8 9 9 6 4 4 5 5 4 7 7 5 5 6 5 5 6 8 8 7 6 8 9 9 8 8 7
5 4 0 2 2 3 2 2 2 2 3 3 3 6 8 7 3 2 5 6 5 4 4 3 4 5 7 9 9 8 6 6 6 6 6 6 6 5 5 4 4 4 5 7 8 9 9 8 7 8 8 7 7 8 7 5 4 5 6 8 11 11 11 8 6 5 4 4 5 7 7 7 7 6 5 5 6 7 8 8 8 8 9 11 12 13 12
Wind_Direction
260 143 125 119 90 64 56 58 55 45 35 38 52 54 50 85 96 121 129 98 92 82 66 59 52 53 53 48 44 37 31 30 30 32 35 31 28 28 27 26 25 23 24 26 29 34 37 37 33 24 14 6 356 346 340 336 328 317 294 270 257 237 223 222 218 209 200 197 198 196 190 183 175 174 173 168 164 163 166 170 168 164 162 159 158 164 170
246 54 76 100 94 75 56 49 54 57 50 48 52 45 42 65 78 85 90 84 76 70 64 58 54 52 52 49 46 40 36 32 31 34 36 33 30 28 26 26 25 25 28 32 35 40 44 46 43 34 25 16 6 358 352 347 340 330 307 283 274 252 230 221 217 210 202 197 195 192 188 182 173 169 165 160 161 164 165 165 161 161 165 165 164 168 175
90 74 78 87 89 83 66 44 37 48 49 42 45 40 33 53 75 83 89 86 75 69 70 65 56 50 49 47 43 41 37 34 35 37 36 34 31 30 29 28 27 29 32 35 37 41 45 48 47 42 34 24 16 10 3 359 357 342 305 273 252 234 223 215 208 205 200 196 193 189 185 182 177 172 164 158 159 162 160 158 159 165 171 171 168 173 181
97 106 103 103 99 85 67 39 21 33 52 48 43 42 32 28 55 86 85 79 69 74 76 68 58 53 52 47 43 42 40 38 40 40 39 37 35 34 33 31 32 37 37 36 36 39 43 45 45 43 39 30 23 21 19 19 31 61 207 190 176 179 186 189 192 194 194 193 191 184 178 180 179 172 168 165 164 163 163 161 162 170 176 176 173 177 184
110 136 132 134 118 79 53 15 0 19 79 85 63 45 33 24 24 65 71 64 66 74 77 73 63 56 54 49 45 46 46 45 44 42 42 41 39 39 39 36 38 42 44 43 41 40 43 45 45 45 43 37 30 28 29 27 29 68 128 140 140 139 146 161 173 182 185 186 184 177 174 179 179 171 168 170 168 166 164 161 163 173 179 178 176 179 183
142 149 137 124 69 72 63 347 356 32 88 88 73 53 35 27 37 77 86 76 71 73 79 84 77 64 58 55 51 51 51 49 46 45 47 47 44 43 43 40 40 43 47 49 49 47 47 49 50 51 51 50 46 41 40 39 36 42 81 123 124 125 137 150 159 170 180 181 178 176 176 177 174 169 168 169 167 166 163 161 166 175 180 181 180 180 182
145 142 123 97 59 118 139 37 24 64 94 94 84 68 45 34 41 69 82 79 83 91 93 94 93 81 66 59 56 54 54 54 54 54 53 52 49 46 47 45 42 42 47 51 52 52 51 49 52 56 58 60 63 61 58 61 59 51 52 94 116 120 132 144 151 161 172 177 174 174 176 175 171 168 169 169 168 168 167 169 176 180 181 182 181 178 174
103 62 58 103 117 131 112 67 31 56 97 99 84 64 43 33 33 48 69 75 84 104 116 116 107 89 70 62 60 60 62 63 62 61 58 55 53 51 51 52 49 46 49 53 54 54 52 51 51 54 59 63 68 71 69 69 70 66 59 63 85 105 120 132 142 150 158 167 171 170 171 174 173 172 175 175 173 175 179 179 181 182 180 178 175 171 165
100 85 60 98 121 109 60 29 359 21 30 348 80 83 52 33 26 30 59 80 75 101 133 146 139 104 69 59 59 61 64 64 62 62 63 61 61 60 58 59 60 58 58 59 59 59 56 54 52 52 55 61 65 68 66 65 68 69 66 61 61 73 91 106 122 134 140 151 162 165 165 169 171 172 176 178 176 178 181 179 177 176 173 170 167 167 166
97 111 103 113 144 134 65 3 327 331 277 237 115 108 77 31 19 19 39 74 61 59 79 149 190 177 73 50 57 64 66 67 63 61 61 61 62 63 63 63 63 64 62 61 61 62 61 58 56 53 54 58 63 64 61 60 63 66 68 66 62 60 64 73 93 114 124 133 145 156 159 162 164 164 166 169 169 168 171 172 168 165 163 166 171 175 178
103 108 100 101 134 126 74 345 321 317 278 219 145 84 76 33 21 24 37 56 50 37 29 33 95 174 119 60 72 74 73 74 71 66 61 59 59 60 61 61 62 63 63 62 61 61 60 59 58 58 57 58 62 64 62 61 62 62 63 64 64 64 62 59 65 86 105 116 127 139 147 150 153 154 156 159 159 157 158 161 162 161 159 162 170 176 181
90 95 91 71 90 119 239 308 312 313 286 164 126 104 94 38 27 34 48 54 45 39 48 53 54 80 114 117 100 87 85 83 79 75 70 65 62 61 60 60 60 60 60 58 56 56 56 57 57 59 62 62 63 63 62 62 61 60 59 61 64 67 72 73 70 74 86 99 110 121 131 138 141 143 147 149 152 154 155 157 165 173 161 151 158 166 168
77 93 108 77 76 140 274 299 309 317 293 137 120 219 115 68 53 51 60 67 62 58 71 79 78 88 106 110 102 93 92 89 83 80 78 75 71 66 63 61 60 60 58 55 52 51 52 54 55 57 62 66 66 65 63 62 62 63 63 64 67 70 74 79 82 84 87 91 95 100 105 114 121 125 132 142 151 159 168 180 196 202 185 170 175 180 174
67 94 108 102 107 23 321 311 319 351 26 186 120 99 95 81 74 71 71 76 81 81 84 92 98 103 105 105 99 93 90 89 86 85 84 81 77 73 68 65 61 60 60 58 55 51 49 50 51 52 58 65 67 67 66 64 65 69 69 68 68 70 72 74 76 82 86 87 87 90 94 101 105 103 107 121 135 150 167 180 188 189 181 167 160 163 162
63 86 72 92 141 336 342 329 319 0 42 134 117 100 94 87 84 86 85 88 95 97 98 101 104 105 103 99 95 91 88 87 86 83 79 76 74 72 70 67 63 59 58 58 57 54 50 47 45 47 53 60 64 66 66 65 65 69 73 73 70 69 70 73 75 77 79 78 78 80 83 91 95 92 90 92 95 99 111 124 132 136 133 124 115 115 117
48 91 64 99 192 3 38 63 77 65 99 124 119 106 100 97 95 96 97 98 101 103 105 107 107 106 103 99 94 89 86 85 84 80 76 73 70 69 69 67 65 62 59 57 56 55 54 49 44 43 46 51 55 59 61 63 65 67 72 77 76 73 72 74 75 78 80 80 80 80 80 83 88 88 87 89 90 90 92 95 95 91 87 86 84 80 81
66 84 84 124 119 82 75 81 86 88 98 109 109 106 107 106 104 105 104 104 104 103 105 106 105 104 101 97 92 89 85 82 82 78 73 70 68 68 69 68 68 67 64 60 57 55 54 51 47 43 43 44 47 49 49 52 58 62 65 73 80 81 80 79 77 79 82 83 81 81 82 83 85 87 88 91 92 94 97 99 98 94 91 91 88 79 73
85 81 88 106 98 86 83 84 86 89 93 99 103 106 108 106 105 105 105 105 106 105 104 104 103 102 101 97 93 90 82 77 78 71 63 64 66 66 66 65 65 67 68 64 59 55 53 51 49 46 44 44 46 45 42 41 44 47 51 58 67 75 81 84 82 82 85 85 84 85 84 80 79 83 87 92 98 102 103 101 103 109 114 120 128 135 149
96 82 104 112 100 92 90 88 89 92 93 97 101 103 104 105 104 103 102 101 102 101 99 98 94 91 92 93 91 87 79 76 75 67 57 57 60 60 60 58 55 59 63 61 56 52 51 51 50 49 47 45 44 44 41 37 34 36 41 47 54 60 64 68 68 66 67 71 76 83 87 86 86 86 86 96 109 117 119 118 117 121 128 137 147 154 163
96 122 132 119 109 107 107 105 106 108 106 106 108 107 108 108 104 102 101 99 98 97 93 87 83 78 76 77 77 78 76 71 66 60 53 50 52 53 52 48 48 54 59 59 56 52 50 50 49 47 45 43 39 38 39 35 30 31 35 41 51 59 61 63 64 61 59 59 59 61 63 66 72 78 79 87 100 108 115 120 121 125 138 155 163 163 167
106 122 127 119 110 109 114 117 119 118 118 119 119 117 117 118 116 112 108 104 100 98 93 89 88 85 80 72 66 65 63 53 46 47 46 42 42 43 41 38 40 47 52 56 58 61 59 53 48 45 41 37 33 33 37 39 35 31 34 40 50 60 65 67 69 68 65 63 60 58 56 54 56 62 65 69 77 88 106 124 134 140 158 179 191 191 194
119 128 130 126 116 116 129 131 130 129 128 128 128 127 125 122 120 118 115 112 108 102 97 95 93 90 81 68 60 61 63 65 65 61 57 54 49 45 41 39 39 40 41 40 43 56 66 62 59 55 47 44 44 43 42 43 39 34 37 43 51 60 66 69 71 71 67 64 61 57 54 54 57 62 66 68 70 77 86 99 116 132 154 178 195 209 220
113 122 127 126 120 125 138 141 140 139 136 132 133 135 131 126 122 120 120 122 121 118 115 106 91 86 78 61 54 58 63 67 70 68 64 63 57 49 42 39 37 35 33 30 29 34 46 57 60 56 47 47 56 56 49 42 33 30 35 40 43 56 68 67 67 68 67 63 57 48 46 52 57 58 62 66 67 69 71 73 75 79 84 96 110 120 119
112 117 122 124 121 125 135 141 143 142 138 136 137 135 132 128 126 123 125 130 129 128 132 127 101 90 86 69 59 59 60 60 59 57 56 56 50 39 34 36 36 30 24 23 22 21 21 23 34 45 37 25 28 44 44 36 35 41 45 38 31 45 68 64 60 68 75 72 68 61 55 56 58 56 56 56 57 62 65 64 65 66 63 61 61 61 60
110 113 116 115 114 115 116 118 118 117 120 129 138 142 138 135 132 129 130 134 133 131 132 130 120 113 103 77 55 52 60 63 56 52 58 62 50 38 32 31 28 20 12 11 8 6 8 7 10 30 29 6 0 19 36 35 47 56 45 31 29 45 72 69 62 76 94 91 88 87 75 61 60 60 49 45 52 59 56 51 57 59 54 50 49 49 50
111 113 114 111 113 114 108 100 99 102 104 108 118 127 129 127 128 127 124 126 132 130 121 120 124 117 92 56 38 45 61 62 55 57 66 65 48 36 26 15 13 13 9 1 353 351 355 357 1 16 21 354 350 8 23 25 60 76 34 24 30 51 83 83 73 72 72 68 85 97 81 70 82 86 55 40 50 56 48 51 61 55 43 40 40 39 45
119 121 122 120 121 123 117 109 109 114 116 110 108 111 113 112 115 117 112 110 116 117 106 106 129 124 78 44 34 40 43 43 56 66 69 62 49 39 12 345 344 353 359 354 345 342 345 349 355 3 8 353 343 349 7 23 39 65 39 39 45 64 101 86 78 72 64 51 36 22 90 96 92 88 75 63 64 72 66 62 62 51 39 39 40 40 49
129 129 126 121 118 121 125 125 122 125 132 130 120 116 123 125 119 116 113 110 109 110 104 96 103 105 78 49 37 49 64 71 76 70 51 31 20 5 338 326 322 318 320 327 329 329 333 343 349 349 354 3 356 345 348 6 12 10 38 41 43 41 2 5 45 63 62 49 30 18 32 149 116 98 92 77 67 74 72 50 51 62 60 53 54 53 52
124 126 125 120 118 121 125 128 129 131 135 134 127 127 135 136 131 127 130 127 116 112 117 113 106 101 79 51 44 71 92 91 61 15 351 335 329 327 326 332 337 328 280 271 288 299 300 301 316 338 346 353 357 354 349 339 336 356 31 27 18 14 9 7 19 54 68 67 51 43 61 120 134 119 114 86 59 68 72 56 68 95 104 83 68 57 47
122 126 129 133 137 137 135 134 133 129 123 114 99 102 114 120 119 118 119 122 117 108 110 115 111 100 88 64 47 67 81 34 1 351 341 329 327 331 336 346 355 353 287 271 289 302 308 299 283 299 322 300 283 323 347 324 304 307 334 7 6 14 24 30 50 102 104 81 66 58 63 77 78 77 123 189 46 77 88 81 78 95 104 95 72 50 43
138 143 149 150 146 141 142 148 149 137 126 114 87 78 84 73 55 74 95 116 126 98 59 37 9 44 64 50 340 314 334 342 344 347 349 347 347 351 355 358 358 354 344 332 323 330 352 354 329 300 307 295 270 274 325 317 307 301 280 308 3 13 23 31 54 105 102 53 45 78 94 98 82 38 276 257 298 80 96 88 69 75 82 76 49 22 18
148 154 160 159 153 145 144 152 147 134 122 114 105 102 99 79 59 51 54 76 241 265 270 257 281 300 304 281 273 274 295 317 328 344 2 4 0 360 1 2 359 355 355 360 5 17 24 12 348 331 324 301 264 257 304 304 296 294 271 251 335 11 30 40 59 83 67 29 46 124 134 129 270 276 267 265 283 330 88 95 73 62 53 37 14 359 358
148 144 139 143 149 149 144 141 133 120 106 99 108 121 124 99 70 61 58 47 25 344 338 329 300 280 259 257 262 270 289 308 323 343 359 358 358 0 2 1 0 359 4 22 29 28 19 355 338 344 354 342 279 257 301 304 292 296 283 247 232 4 44 55 64 60 18 358 359 335 325 329 324 301 278 265 264 269 273 276 308 344 356 358 356 357 3
114 106 93 95 113 121 119 118 114 104 94 92 97 110 124 113 84 53 24 14 11 14 9 346 322 299 267 254 253 267 290 307 321 336 344 347 351 357 0 0 1 6 22 32 23 7 351 336 326 335 358 10 353 270 297 296 282 285 280 253 221 199 164 63 52 27 304 310 322 318 316 324 328 315 292 271 259 255 258 264 268 274 317 341 351 5 31
106 108 102 99 100 98 98 103 105 102 97 84 69 72 94 100 85 57 24 1 352 357 352 340 338 329 274 247 249 271 296 309 316 323 330 337 344 351 357 1 9 26 44 41 23 358 341 333 323 323 342 356 352 303 293 285 274 281 286 275 243 214 210 239 348 314 266 282 311 318 320 333 339 323 292 267 253 245 242 246 247 229 196 115 60 51 68
109 112 108 111 115 106 91 85 88 92 84 69 68 79 79 75 68 46 28 25 19 358 335 334 351 352 290 261 280 297 300 298 305 315 323 328 337 348 356 1 10 31 48 47 32 2 346 342 333 327 334 338 327 274 272 286 288 296 297 278 238 210 199 194 8 340 278 278 301 313 326 346 356 347 283 233 226 235 235 222 215 211 188 159 149 155 179
100 101 97 101 115 115 90 67 64 76 77 67 78 85 59 49 48 40 27 28 31 26 2 330 332 330 305 303 313 312 298 290 298 310 318 322 331 342 350 354 359 14 36 39 14 338 339 348 346 336 335 339 335 247 255 275 290 305 307 291 258 221 199 178 57 353 272 264 303 324 329 349 4 3 297 191 178 206 217 175 179 195 181 160 182 196 199
102 103 102 104 109 117 110 81 62 75 96 75 57 51 47 52 55 38 19 16 15 10 352 322 315 311 306 318 327 327 316 311 312 312 313 318 325 332 339 348 349 340 342 350 325 317 332 347 348 341 342 359 11 349 315 281 292 309 313 314 322 301 202 173 100 346 262 258 315 337 335 348 2 1 350 165 158 173 186 175 196 220 227 240 267 269 253
116 110 115 118 109 108 120 107 69 67 83 67 52 49 55 32 317 316 350 4 346 322 321 347 332 314 307 314 325 328 324 324 328 328 321 315 318 328 341 356 353 342 326 294 286 309 331 346 346 342 339 322 306 322 314 289 288 299 294 287 302 303 228 196 182 342 263 262 303 328 331 342 356 1 8 170 162 155 168 195 215 227 235 249 274 288 261
127 120 119 119 107 104 116 126 93 85 81 54 39 26 17 13 352 305 323 0 356 343 348 359 329 320 323 330 334 336 334 324 325 331 325 310 307 322 341 351 353 352 342 289 275 306 334 348 353 353 347 268 258 302 307 296 296 303 297 269 249 270 269 242 214 136 322 274 281 303 313 323 350 11 42 151 148 126 125 179 182 189 217 240 226 223 234
132 128 130 130 108 93 100 98 76 72 46 354 339 342 6 16 12 327 310 325 338 342 344 329 301 303 311 312 314 321 322 316 318 325 323 308 301 309 321 324 334 357 5 337 309 322 334 342 349 351 344 325 305 299 292 293 300 307 308 241 226 288 303 267 198 150 29 301 273 294 313 310 333 14 48 100 124 124 130 130 117 138 189 209 225 273 284
122 120 133 137 88 44 72 92 44 20 6 344 250 206 255 323 339 332 311 306 312 318 319 312 300 299 301 304 309 311 311 314 318 321 319 310 296 286 291 297 298 303 310 312 324 336 337 334 332 326 317 323 345 337 313 309 311 310 322 341 299 312 324 259 189 174 33 338 302 304 307 298 310 346 38 86 93 95 127 157 168 178 207 238 276 309 344
137 134 142 134 41 9 41 72 344 4 35 58 85 106 28 351 354 357 344 316 311 306 303 309 317 318 315 316 317 317 314 315 316 315 316 312 285 264 281 301 306 302 296 293 305 328 329 319 318 317 300 290 320 336 327 325 323 312 287 297 300 304 318 287 210 202 216 337 332 329 310 290 295 305 309 116 88 65 79 159 202 215 247 318 295 312 19
147 153 154 149 232 276 53 358 316 318 349 6 5 13 29 16 4 356 342 325 314 304 299 300 306 311 313 309 306 309 312 310 304 302 305 301 280 270 283 299 309 309 302 293 292 315 316 303 306 318 307 292 305 314 314 317 318 306 267 245 261 284 298 296 273 239 229 252 301 331 323 295 275 262 240 198 160 132 77 85 183 206 229 260 264 296 334
157 172 174 179 205 199 138 65 340 343 349 350 350 351 359 2 339 324 316 317 318 314 309 303 299 301 305 304 302 306 306 302 299 298 297 297 295 293 295 300 301 294 278 258 261 307 316 310 307 316 317 307 303 304 305 307 308 300 268 235 226 249 288 281 254 238 252 256 259 302 329 311 252 224 221 215 196 187 211 233 170 191 213 227 235 263 296
165 178 193 217 242 221 191 179 40 25 10 349 339 337 351 11 353 337 329 330 324 315 311 308 303 303 307 306 304 305 301 298 299 300 301 306 311 311 308 303 290 263 230 218 268 305 320 328 332 338 339 329 314 305 303 301 299 300 282 240 225 235 303 294 231 218 240 263 252 245 298 310 276 234 220 216 216 220 231 239 243 182 210 217 223 238 244
180 183 199 227 277 61 200 251 323 350 344 350 14 65 92 353 352 359 2 351 335 324 324 323 314 306 306 308 307 306 303 300 300 303 310 321 334 340 337 325 292 256 245 260 283 298 313 322 324 333 342 341 331 320 311 301 287 276 258 217 219 231 287 296 242 234 257 270 250 223 217 278 290 286 219 209 218 229 236 245 287 332 247 219 213 214 224
175 169 189 261 325 41 65 335 22 23 16 33 55 61 31 3 7 17 9 350 342 342 342 337 323 309 308 313 310 305 303 303 305 308 315 320 317 318 331 339 325 283 267 267 275 292 302 302 303 316 331 336 335 328 317 303 281 242 205 188 215 254 272 277 264 257 266 269 247 221 200 226 269 259 225 211 223 237 247 250 254 252 238 233 232 236 252
168 174 202 224 176 105 142 152 97 27 4 6 17 16 13 19 28 21 358 353 6 8 354 336 317 308 308 305 296 293 295 299 303 306 308 306 293 289 305 324 328 308 279 265 273 294 299 293 296 312 322 331 339 336 321 298 263 210 202 211 260 287 292 287 255 239 250 273 257 222 200 188 216 239 247 255 254 250 251 253 243 233 232 239 242 248 267
168 182 196 178 150 64 7 232 246 322 330 336 5 26 31 39 33 8 343 327 350 13 8 355 339 328 320 313 307 304 302 306 313 311 299 285 273 275 293 302 306 308 303 294 295 301 297 287 288 301 306 314 333 337 327 305 173 166 196 232 277 287 286 281 224 228 260 296 276 226 204 195 209 231 247 261 254 247 252 264 250 235 234 238 236 242 269
179 181 154 123 121 96 48 50 118 277 350 105 109 58 3 3 17 10 348 324 306 313 1 16 8 355 339 329 329 329 322 319 324 316 293 274 266 265 294 315 314 319 322 321 317 317 314 302 289 289 297 309 328 335 333 337 102 190 231 240 251 258 259 258 259 270 292 304 268 221 208 210 228 239 248 254 242 241 254 271 265 249 248 250 243 238 248
187 187 170 34 85 115 80 44 74 133 130 96 37 359 351 355 14 4 332 324 314 294 289 309 359 6 342 327 328 335 335 330 327 317 294 280 272 257 242 247 268 289 302 301 296 300 314 316 295 276 283 306 327 332 330 334 339 326 295 261 248 251 255 252 248 255 270 267 241 227 230 239 240 235 236 242 246 254 271 286 290 282 271 261 253 247 246